[[{"header":{"parameterUnit":"m.s-1","parameterCategory":1,"la1":30.2991,"la2":30.254,"lo1":-89.0895,"lo2":-89.0444,"dy":0.0017,"dx":0.0017,"nx":28,"ny":28,"refTime":"2024-09-01T21:00:00:Z","depth":0,"parameterNumber":2,"parameterNumberName":"U-component_of_WINDS"},"data":[0,0,0,0,0,0,0,0,0,0,0,0,0,0,0,0,0,0,0,0,0,0,0,0,0,0,0,0,0,0,0,0,0,0,0,0,0,0,0,0,0,0,0,0,0,0,0,0,0,0,0,0,0,0,0,0,0,0,0.6956,0.6957,0,0.7125,0.7127,0.7129,0.7211,0.7211,0.7211,0.7211,0.7394,0.7399,0.7404,0,0,0,0,0,0,0,0,0,0,0,0,0,0.6708,0.6713,0.6955,0.6958,0.696,0.7125,0.7127,0.713,0.7211,0.7211,0.7211,0.7211,0.7392,0.7398,0.7404,0,0,0,0,0,0,0,0,0,0,0,0,0,0.6841,0.6714,0.6955,0.702,0.7027,0.7125,0.7128,0.713,0.7211,0.7211,0.7211,0.7211,0.739,0.7398,0.7405,0.7454,0,0,0.7428,0.7431,0,0,0,0,0,0,0,0,0.6833,0.685,0.7008,0.7016,0.7024,0.7147,0.7108,0.7239,0.7211,0.7142,0.7211,0.721,0.7312,0.7326,0.7359,0.7462,0.747,0.7428,0.7433,0.7436,0.7438,0,0,0,0,0,0,0,0.6824,0.6843,0.7023,0.701,0.702,0.7043,0.7061,0.7133,0.7226,0.7148,0.7154,0.7172,0.7317,0.7351,0.7364,0.7473,0.7428,0.7435,0.7439,0.7442,0.7624,0.7624,0,0,0,0,0,0,0.6803,0.6835,0.7018,0.7028,0.6926,0.7047,0.7068,0.7108,0.7225,0.7243,0.7172,0.7175,0.7339,0.7355,0.737,0.7434,0.7436,0.7443,0.7447,0.7623,0.7624,0.7624,0,0,0,0,0,0,0.6798,0.6819,0.7011,0.6933,0.6959,0.7052,0.7095,0.7111,0.7146,0.7244,0.7262,0.719,0.7339,0.736,0.7431,0.7442,0.7446,0.7453,0.7623,0.7623,0.7624,0.7562,0,0,0,0,0,0,0.679,0.6816,0.6834,0.6933,0.6963,0.7066,0.7096,0.7114,0.7157,0.7163,0.7265,0.7282,0.7341,0.742,0.7439,0.7452,0.7459,0.7622,0.7623,0.7624,0.7564,0.756,0.7558,0,0,0,0,0,0.6781,0.6812,0.6834,0.6856,0.6987,0.7067,0.7084,0.7148,0.7157,0.7177,0.724,0.7279,0.7437,0.7426,0.7449,0.7464,0.7622,0.7623,0.7624,0.7565,0.7561,0.7558,0,0,0,0,0,0,0.6717,0.6827,0.6852,0.6916,0.6981,0.708,0.7107,0.7143,0.7209,0.7212,0.7292,0.7314,0.7378,0.7429,0.7415,0.7517,0.7533,0.7539,0.7481,0.7478,0.7475,0.7462,0.7465,0,0,0,0,0,0.6709,0.6762,0.6856,0.6904,0.6934,0.7015,0.7052,0.7095,0.7167,0.7196,0.7264,0.7335,0.74,0.7442,0.7508,0.7571,0.7595,0.7593,0.759,0.7587,0.7591,0.7627,0.7627,0.7627,0.7627,0.7626,0,0,0.6696,0.6762,0.6792,0.6892,0.6948,0.7002,0.7038,0.7095,0.7137,0.7206,0.7276,0.7328,0.7413,0.7479,0.7512,0.7523,0.7595,0.7588,0.7584,0.759,0.7627,0.7627,0.7627,0.7627,0.7627,0.7627,0,0,0.6699,0.6754,0.6798,0.6852,0.6934,0.6986,0.6997,0.709,0.7126,0.7197,0.7249,0.7302,0.7413,0.7471,0.7514,0.7535,0.7574,0.7555,0.754,0.7574,0.7574,0.7574,0.7582,0.7583,0.7558,0.7558,0.7558,0,0.6673,0.6755,0.6818,0.6871,0.6914,0.6974,0.702,0.7071,0.7171,0.72,0.721,0.7349,0.7411,0.7491,0.7495,0.7529,0.7544,0.7544,0.7568,0.7569,0.7571,0.7579,0.7581,0.7555,0.7556,0.7556,0.7556,0,0.6718,0.6774,0.68,0.6891,0.6937,0.6987,0.7059,0.7099,0.7137,0.7189,0.7261,0.7335,0.7416,0.7439,0.7479,0.7525,0.7529,0.7552,0.7571,0.7567,0.7575,0.7579,0.7551,0.7552,0.7553,0.7554,0,0,0.6688,0.6809,0.6818,0.6859,0.6952,0.6998,0.705,0.7126,0.7158,0.7225,0.7272,0.7363,0.7384,0.7434,0.7481,0.7511,0.7522,0.7531,0.7534,0.7526,0.7576,0.7557,0.756,0.7547,0.7548,0.7548,0.7569,0,0.6704,0.6796,0.6853,0.6924,0.6977,0.7034,0.7079,0.7142,0.7192,0.7246,0.7303,0.7365,0.7389,0.7419,0.7451,0.7513,0.7533,0.7513,0.7593,0.7595,0.757,0.7565,0.7546,0.7561,0.7573,0.7573,0.7574,0,0.6735,0.6795,0.687,0.6954,0.6979,0.7018,0.7091,0.7141,0.7214,0.7248,0.7301,0.7348,0.7407,0.7419,0.7503,0.7488,0.7524,0.756,0.7562,0.7573,0.7584,0.7575,0.7568,0.757,0.758,0.758,0.7579,0,0.6704,0.6805,0.6862,0.6895,0.6996,0.7022,0.7066,0.7138,0.7179,0.7244,0.7272,0.7344,0.7383,0.7439,0.7504,0.7507,0.7581,0.76,0.7613,0.7611,0.7627,0.7625,0.7626,0.7649,0.7649,0.7649,0.7649,0,0.6716,0.6759,0.6848,0.6884,0.6934,0.7,0.7049,0.7098,0.7161,0.7209,0.7264,0.7308,0.7391,0.7446,0.7497,0.7558,0.7577,0.7607,0.762,0.7602,0.7598,0.7628,0.7628,0.765,0.765,0.765,0.765,0,0.6691,0.6752,0.6818,0.6906,0.6929,0.6962,0.7039,0.7076,0.7127,0.7186,0.7204,0.7286,0.7353,0.7422,0.7515,0.755,0.7609,0.7628,0.7583,0.759,0.76,0.7597,0.762,0.7626,0.7644,0.7644,0.7644,0,0.6694,0.6728,0.6818,0.6851,0.6892,0.6946,0.6987,0.7053,0.7094,0.7178,0.7205,0.7275,0.7335,0.744,0.7509,0.758,0.7601,0.7603,0.7612,0.7592,0.7601,0.7597,0.7601,0.76,0.76,0.7599,0.7599,0,0.6693,0.6721,0.6776,0.684,0.6886,0.6941,0.6999,0.7024,0.7103,0.7146,0.7212,0.7258,0.7349,0.7419,0.7497,0.7546,0.7586,0.7595,0.7602,0.7584,0.7557,0.7571,0.7575,0.7595,0.7595,0.7596,0.7596,0.7596,0.6683,0.6715,0.6782,0.684,0.689,0.6941,0.698,0.7034,0.7089,0.7166,0.7203,0.7269,0.7341,0.745,0.7497,0.7552,0.7564,0.7574,0.7576,0.7578,0.7573,0.7547,0.7567,0.7567,0.7567,0.7567,0.7567,0,0.6685,0.6729,0.6782,0.6858,0.6905,0.6934,0.6999,0.7037,0.7093,0.7155,0.721,0.7287,0.7354,0.7427,0.7499,0.7529,0.7549,0.7545,0.7544,0.7555,0.7558,0.7545,0.7528,0.7528,0.7528,0.7528,0.7528,0.7528,0.6691,0.6745,0.6781,0.6861,0.6907,0.6969,0.7003,0.7052,0.7101,0.7182,0.7236,0.7282,0.7349,0.7425,0.7488,0.7509,0.7533,0.7524,0.7549,0.7551,0.7555,0.7558,0.7545,0.7528,0.7528,0.7541,0.7541,0.7541]},{"header":{"parameterUnit":"m.s-1","parameterCategory":1,"la1":30.2991,"la2":30.254,"lo1":-89.0895,"lo2":-89.0444,"dy":0.0017,"dx":0.0017,"nx":28,"ny":28,"refTime":"2024-09-01T21:00:00:Z","depth":0,"parameterNumber":3,"parameterNumberName":"V-component_of_WINDS"},"data":[0,0,0,0,0,0,0,0,0,0,0,0,0,0,0,0,0,0,0,0,0,0,0,0,0,0,0,0,0,0,0,0,0,0,0,0,0,0,0,0,0,0,0,0,0,0,0,0,0,0,0,0,0,0,0,0,0,0,1.8148,1.8147,0,1.8019,1.8018,1.8016,1.7932,1.7931,1.7931,1.793,1.7792,1.7789,1.7785,0,0,0,0,0,0,0,0,0,0,0,0,0,1.8315,1.8312,1.8148,1.8147,1.8145,1.8019,1.8018,1.8016,1.7932,1.7931,1.7931,1.793,1.7793,1.7789,1.7785,0,0,0,0,0,0,0,0,0,0,0,0,0,1.822,1.8311,1.8149,1.8088,1.8082,1.802,1.8018,1.8015,1.7932,1.7931,1.7931,1.793,1.7794,1.7789,1.7785,1.777,0,0,1.777,1.7768,0,0,0,0,0,0,0,0,1.8225,1.8214,1.8099,1.8092,1.8085,1.7991,1.8025,1.7933,1.7932,1.7989,1.793,1.7929,1.7858,1.7848,1.7825,1.7764,1.7758,1.7769,1.7766,1.7764,1.7763,0,0,0,0,0,0,0,1.8232,1.8219,1.8097,1.8097,1.8089,1.8065,1.8051,1.8007,1.7929,1.7984,1.7977,1.7964,1.7854,1.783,1.7821,1.7756,1.777,1.7765,1.7762,1.776,1.7672,1.7673,0,0,0,0,0,0,1.8249,1.8225,1.8101,1.8093,1.8155,1.8063,1.8047,1.8022,1.7929,1.7915,1.7964,1.796,1.7839,1.7827,1.7816,1.7791,1.7764,1.776,1.7757,1.7672,1.7672,1.7673,0,0,0,0,0,0,1.8253,1.8239,1.8106,1.8157,1.8139,1.8061,1.8033,1.802,1.7996,1.7915,1.79,1.7955,1.7838,1.7823,1.7782,1.7785,1.7758,1.7753,1.7671,1.7672,1.7673,1.7742,0,0,0,0,0,0,1.8258,1.8241,1.8237,1.8158,1.8136,1.8077,1.8034,1.8018,1.7988,1.7982,1.7902,1.7888,1.7836,1.779,1.7777,1.7778,1.775,1.767,1.7671,1.7672,1.7739,1.7745,1.775,0,0,0,0,0,1.8264,1.826,1.8237,1.8222,1.813,1.8077,1.8065,1.8007,1.7989,1.7982,1.793,1.789,1.7787,1.7786,1.7771,1.7771,1.767,1.7671,1.7672,1.7736,1.7744,1.775,0,0,0,0,0,0,1.834,1.8249,1.8222,1.8193,1.8144,1.8063,1.8054,1.8017,1.797,1.7966,1.7894,1.7876,1.7842,1.7802,1.7803,1.775,1.7723,1.7722,1.7777,1.7783,1.7789,1.7798,1.7746,0,0,0,0,0,1.8354,1.8321,1.8243,1.8224,1.8201,1.8132,1.8107,1.8067,1.8012,1.799,1.7935,1.7881,1.7836,1.7808,1.7762,1.7733,1.7712,1.7725,1.7731,1.7736,1.7734,1.7712,1.7716,1.7677,1.7677,1.7677,0,0,1.8381,1.8327,1.831,1.8238,1.8195,1.816,1.8115,1.8081,1.8053,1.7984,1.7942,1.7899,1.7834,1.7799,1.778,1.7764,1.774,1.7737,1.7742,1.7737,1.7714,1.7717,1.7721,1.7678,1.7677,1.7677,0,0,1.8411,1.837,1.8348,1.8306,1.8242,1.8196,1.8191,1.8116,1.8085,1.8043,1.7989,1.7954,1.7879,1.7834,1.7801,1.7814,1.7774,1.7801,1.7829,1.7808,1.7811,1.7814,1.7815,1.7816,1.78,1.78,1.78,0,1.8452,1.84,1.8341,1.831,1.8278,1.8216,1.8192,1.8153,1.8077,1.8055,1.804,1.7943,1.7895,1.7846,1.7849,1.7825,1.7814,1.7809,1.7816,1.7818,1.7819,1.7819,1.782,1.7804,1.7803,1.7803,1.7803,0,1.8452,1.8416,1.8406,1.8336,1.8303,1.8275,1.821,1.8183,1.8146,1.81,1.8055,1.7995,1.7935,1.7921,1.7884,1.7866,1.7858,1.783,1.7801,1.7827,1.7826,1.7826,1.7809,1.7807,1.7806,1.7806,0,0,1.8526,1.8423,1.842,1.8386,1.8311,1.828,1.8248,1.8191,1.8168,1.8118,1.8087,1.8024,1.7998,1.796,1.7917,1.79,1.7909,1.7873,1.7871,1.788,1.7881,1.7901,1.7902,1.7883,1.7883,1.7883,1.7886,0,1.8543,1.8485,1.8431,1.8391,1.8355,1.8295,1.8267,1.8216,1.8172,1.8133,1.8084,1.8039,1.801,1.7986,1.7967,1.7912,1.7908,1.7912,1.785,1.7849,1.7866,1.7902,1.7923,1.7929,1.7885,1.7885,1.7885,0,1.8555,1.8508,1.8465,1.8391,1.8374,1.835,1.8292,1.8257,1.8196,1.8165,1.8124,1.8079,1.8038,1.8016,1.7958,1.7961,1.7933,1.7902,1.7901,1.7891,1.7867,1.789,1.793,1.793,1.7885,1.7885,1.7885,0,1.8609,1.8535,1.8499,1.8473,1.8386,1.837,1.8333,1.8272,1.8241,1.8189,1.8167,1.8111,1.808,1.8036,1.7976,1.7965,1.7923,1.7896,1.7893,1.7894,1.7885,1.7886,1.7917,1.7871,1.7871,1.7871,1.7871,0,1.8632,1.8607,1.8522,1.85,1.8469,1.8406,1.8377,1.8334,1.828,1.8246,1.8191,1.816,1.8083,1.8041,1.7994,1.7951,1.7938,1.7909,1.7896,1.7913,1.7916,1.7891,1.7888,1.7871,1.7871,1.7871,1.7871,0,1.8686,1.8629,1.8585,1.8508,1.8487,1.8468,1.84,1.8374,1.8328,1.8285,1.8271,1.8197,1.8145,1.8081,1.8008,1.7976,1.7937,1.7919,1.7958,1.795,1.795,1.7949,1.7964,1.7962,1.7921,1.7921,1.7921,0,1.8704,1.8683,1.8604,1.8578,1.8543,1.8502,1.847,1.8407,1.8375,1.8304,1.8286,1.823,1.8182,1.8101,1.8039,1.7982,1.796,1.797,1.7951,1.7968,1.7957,1.7958,1.7954,1.7974,1.7974,1.7975,1.7976,0,1.8739,1.8711,1.8669,1.8615,1.8579,1.8533,1.8485,1.8466,1.8392,1.8358,1.8306,1.8269,1.8194,1.8138,1.8074,1.8032,1.799,1.7982,1.7978,1.7993,1.8016,1.8001,1.7968,1.7982,1.7981,1.7981,1.798,1.798,1.8773,1.8751,1.8691,1.8645,1.8602,1.8558,1.853,1.848,1.8436,1.8372,1.8337,1.8284,1.8221,1.813,1.809,1.8046,1.8031,1.8025,1.8023,1.8023,1.8026,1.8025,1.8034,1.8034,1.8033,1.8033,1.8033,0,1.8803,1.8762,1.8719,1.8654,1.8617,1.8584,1.8528,1.8498,1.8454,1.84,1.8354,1.8292,1.8237,1.8171,1.8111,1.8088,1.8068,1.8074,1.8074,1.8064,1.8045,1.8053,1.8092,1.8092,1.8092,1.8092,1.8092,1.8092,1.8814,1.8774,1.874,1.8678,1.8636,1.8586,1.8557,1.8514,1.8471,1.8405,1.836,1.8319,1.8259,1.8194,1.8141,1.8122,1.8101,1.8114,1.8089,1.8071,1.8066,1.8061,1.8069,1.8111,1.8111,1.8112,1.8112,1.8112]}]]